Lexington Weather

Lexington, Massachusetts, USA

34°F
4/16/2021 11:08am 
  • Lexington Conditions: Light snow, Mist, Overcast
  • Temperature: 34.0°F / 1.1°CWarmer 0.2°F than last hour.
  • Dew Point: 32.7°FIncreased 0.2°Fsince last hour.
  • Relative Humidity: 95
  • Wind: Wind from N N Calm, 10-min avg: 2 mph, gust: 4 mph
  • Barometer: 29.46 inFalling 0.04  inHg/hr Falling Slowly
  • Visibility: 1 mile
  • Snow Today: 1.7 in
  •   

Regional Weather Roundup
for Boston / Norton, MA

        
000
ASUS41 KBOX 122305
RWRBOX

REGIONAL WEATHER ROUNDUP
NATIONAL WEATHER SERVICE BOSTON/NORTON MA
700 PM EDT MON APR 12 2021

NOTE:  "FAIR" INDICATES FEW OR NO CLOUDS BELOW 12,000 FEET WITH NO 
SIGNIFICANT WEATHER AND/OR OBSTRUCTIONS TO VISIBILITY.

MAZALL-130000-
EASTERN MASSACHUSETTS
  
CITY           SKY/WX    TMP DP  RH WIND       PRES   REMARKS
BOSTON         MOCLDY    45  39  79 E12       29.93R                  
BEVERLY        NOT AVBL                                               
LAWRENCE       MOCLDY    45  36  70 NE9       29.94R                  
BEDFORD        MOCLDY    46  36  68 E9        29.91R                  
BLUE HILL        N/A     41  39  93 E12G20    29.88R                  
NORWOOD        MOCLDY    46  39  76 NE8       29.90S                  
MARSHFIELD     CLOUDY    46  41  81 E15       29.91R                  
PLYMOUTH       CLOUDY    43  39  86 NE13G24   29.89R                  
TAUNTON        CLOUDY    45  39  79 VRB7      29.89R                  
NEW BEDFORD    CLOUDY    45  37  73 NE14      29.88R                  
$$

MAZALL-130000-
CAPE COD AND THE ISLANDS
  
CITY           SKY/WX    TMP DP  RH WIND       PRES   REMARKS
FALMOUTH       CLOUDY    43  36  75 NE21G40   29.87R                  
HYANNIS        MOCLDY    44  36  73 NE18G24   29.85R                  
CHATHAM        MOCLDY    43  35  73 NE20G29   29.88S                  
PROVINCETOWN   CLOUDY    43  39  86 MISG        N/A                   
NANTUCKET      MOCLDY    43  37  79 NE20G32   29.85R                  
MARTHAS VNYRD  MOCLDY    45  37  73 NE21G29   29.87R                  
$$
 
MAZALL-130000-
CENTRAL AND WESTERN MASSACHUSETTS
  
CITY           SKY/WX    TMP DP  RH WIND       PRES   REMARKS
WORCESTER      MOCLDY    43  35  73 E14G21    29.89R                  
FITCHBURG      MOCLDY    47  36  65 E7        29.92R                  
ORANGE         CLOUDY    48  37  65 E7        29.91R                  
SPRINGFIELD    PTCLDY    49  35  59 E10       29.89R                  
WESTFIELD      CLOUDY    49  37  63 E6        29.90R                  
NORTH ADAMS    CLOUDY    49  39  68 E8        29.89R                  
PITTSFIELD     CLOUDY    45  38  76 VRB7      29.87R                  
$$
 
RIZALL-130000-
RHODE ISLAND
  
CITY           SKY/WX    TMP DP  RH WIND       PRES   REMARKS
PROVIDENCE     CLOUDY    47  39  74 NE12      29.89R                  
NEWPORT        CLOUDY    44  40  85 NE12G21   29.87R                  
BLOCK ISLAND   CLOUDY    44  40  85 NE15G21   29.87R                  
SMITHFIELD     MOCLDY    44  40  85 NE7       29.89R                  
WESTERLY       CLOUDY    45  37  73 NE13G22   29.87R                  
$$
 
CTZALL-130000-
CONNECTICUT
  
CITY           SKY/WX    TMP DP  RH WIND       PRES   REMARKS
BRADLEY INTL   MOCLDY    49  38  65 NE14      29.89R                  
HARTFORD       CLOUDY    49  38  65 NE12G21   29.89R                  
BRIDGEPORT     LGT RAIN  48  44  86 CALM      29.86R                  
DANBURY        RAIN      50  46  86 NE5       29.86R FOG              
GROTON         CLOUDY    48  38  68 NE10      29.86R                  
NEW HAVEN      CLOUDY    49  45  86 CALM      29.86R                  
CHESTER        CLOUDY    48  39  71 NE10      29.86R                  
MERIDEN        CLOUDY    49  37  63 NE9G20    29.87R                  
WILLIMANTIC    CLOUDY    47  38  71 E10       29.88R                  
OXFORD         CLOUDY    47  42  83 NE9       29.86R                  
$$

MEZ002-015-021-024-NHZ003-005-008-011-012-014-VTZ005-008-130000-
NORTHERN NEW ENGLAND
  
CITY           SKY/WX    TMP DP  RH WIND       PRES   REMARKS
PORTLAND ME    CLEAR     45  34  65 SE6       29.94R                  
BANGOR ME      PTCLDY    55  35  47 NE13      29.94R                  
CONCORD NH     PTCLDY    47  35  63 E6        29.93R                  
MANCHESTER NH  MOCLDY    48  33  56 E7        29.92R                  
NASHUA NH      MOCLDY    47  36  65 E10G16    29.94R                  
PORTSMOUTH NH  MOCLDY    45  31  59 NE7       29.94R                  
JAFFREY NH     CLOUDY    46  36  68 MISG      29.90R                  
KEENE NH       CLOUDY    49  37  63 NE6       29.91R                  
BURLINGTON VT  CLOUDY    60  42  51 S7        29.86R                  
MT. WASHINGTON FOG       27  27 100 E32         N/A  VSB 1/16WCI  10  
$$

NYZ052-076-130000-
EASTERN NEW YORK
  
CITY           SKY/WX    TMP DP  RH WIND       PRES   REMARKS
ALBANY         CLOUDY    50  45  83 N6        29.88R                  
NEW YORK CITY  LGT RAIN  48  44  86 NE5       29.86R                  
$$
 
ANZALL-130000-
MARINE OBSERVATIONS
  
STATION/POSITION TIME  TEMP    WIND        PRES    VSBY  WAVE
                       AIR SEA DIR/SP/G                  HT/PER
                 (UTC) (F)     (DEG/KT/KT) (MB)    (MI)  (FT/S)
BOSTON BUOY      2250   43 44   70/ 10/ 14 1013.6R         7/ 8
BUZZARDS BAY     2200           40/ 21/ 22 1011.3R
NANTUCKET SOUND  2250      47                N/A           3/ 4
MASS BAY-STELLWA 2204   44      80/ 12/ 14 1011.8R  1 7/8  6/ 8
ISLE OF SHOALS   2200   44      80/  4/  5 1012.9R
S OF BLOCK IS    2226      45                N/A           5/ 5
$$

......................KEY.........................
  SKY/WX - SKY CONDITION/PRESENT WEATHER
  TMP    - TEMPERATURE IN FAHRENHEIT
  DWPT   - DEWPOINT IN FAHRENHEIT
  RH     - RELATIVE HUMIDITY IN PERCENT
  WIND   - DIRECTION AND SPEED IN MPH
  PRES   - MEAN SEA LEVEL PRESSURE IN INCHES OF HG
  WCI    - WIND CHILL INDEX
  VSB    - VISIBILITY IN MILES
  HX     - HEAT INDEX
  TC     - TEMPERATURE IN CELSIUS
  VRB    - VARIABLE WIND DIRECTION
  N/A    - NOT AVAILABLE
  
      

Other recent Regional Weather Roundups

Fri Apr 16, 10:05am

Fri Apr 16, 9:04am

Fri Apr 16, 8:04am

Fri Apr 16, 7:04am

Fri Apr 16, 6:04am

Fri Apr 16, 5:04am

Fri Apr 16, 4:04am

Fri Apr 16, 3:04am

Fri Apr 16, 2:04am

Fri Apr 16, 1:04am

Fri Apr 16, 12:04am

Thu Apr 15, 11:05pm

Thu Apr 15, 10:04pm

Thu Apr 15, 9:04pm

Thu Apr 15, 8:04pm

Thu Apr 15, 7:05pm

Thu Apr 15, 6:04pm

Thu Apr 15, 5:05pm

Thu Apr 15, 4:04pm

Thu Apr 15, 3:05pm

Thu Apr 15, 2:04pm

Thu Apr 15, 1:05pm

Thu Apr 15, 12:04pm

Thu Apr 15, 11:04am

Thu Apr 15, 10:05am

Thu Apr 15, 9:04am

Thu Apr 15, 8:04am

Thu Apr 15, 7:04am

Thu Apr 15, 6:04am

Thu Apr 15, 5:04am

Thu Apr 15, 4:04am

Thu Apr 15, 3:04am

Thu Apr 15, 2:04am

Thu Apr 15, 1:04am

Thu Apr 15, 12:04am

Wed Apr 14, 11:04pm

Wed Apr 14, 10:04pm

Wed Apr 14, 9:04pm

Wed Apr 14, 8:04pm

Wed Apr 14, 7:04pm

Wed Apr 14, 6:04pm

Wed Apr 14, 5:05pm

Wed Apr 14, 4:04pm

Wed Apr 14, 3:05pm

Wed Apr 14, 2:04pm

Wed Apr 14, 1:05pm

Wed Apr 14, 12:04pm

Wed Apr 14, 11:04am

Wed Apr 14, 10:04am

Wed Apr 14, 9:04am

Wed Apr 14, 8:04am

Wed Apr 14, 7:04am

Wed Apr 14, 6:04am

Wed Apr 14, 5:04am

Wed Apr 14, 4:04am

Wed Apr 14, 3:04am

Wed Apr 14, 2:04am

Wed Apr 14, 1:04am

Wed Apr 14, 12:04am

Tue Apr 13, 11:04pm

Tue Apr 13, 10:05pm

Tue Apr 13, 9:05pm

Tue Apr 13, 8:05pm

Tue Apr 13, 7:04pm

Tue Apr 13, 6:04pm

Tue Apr 13, 5:05pm

Tue Apr 13, 4:04pm

Tue Apr 13, 3:04pm

Tue Apr 13, 2:05pm

Tue Apr 13, 1:04pm

Tue Apr 13, 12:05pm

Tue Apr 13, 11:05am

Tue Apr 13, 10:04am

Tue Apr 13, 9:04am

Tue Apr 13, 8:04am

Tue Apr 13, 7:04am

Tue Apr 13, 6:04am

Tue Apr 13, 5:04am

Tue Apr 13, 4:04am

Tue Apr 13, 3:04am

Tue Apr 13, 2:04am

Tue Apr 13, 1:04am

Tue Apr 13, 12:05am

Mon Apr 12, 11:04pm

Mon Apr 12, 10:04pm

Mon Apr 12, 9:04pm

Mon Apr 12, 8:04pm

Mon Apr 12, 6:04pm

Mon Apr 12, 5:04pm

Mon Apr 12, 4:04pm

Mon Apr 12, 3:05pm

Mon Apr 12, 2:04pm

Mon Apr 12, 1:05pm

Mon Apr 12, 12:04pm

Mon Apr 12, 11:04am

Mon Apr 12, 10:04am

Mon Apr 12, 9:04am

Mon Apr 12, 8:04am

Mon Apr 12, 7:04am

Mon Apr 12, 6:04am

Mon Apr 12, 5:04am

Mon Apr 12, 4:04am

Mon Apr 12, 3:04am

Mon Apr 12, 2:04am

Mon Apr 12, 1:05am

Mon Apr 12, 12:04am

Sun Apr 11, 11:04pm

Sun Apr 11, 10:04pm

Sun Apr 11, 9:04pm

Sun Apr 11, 8:04pm

Sun Apr 11, 7:04pm

Sun Apr 11, 6:05pm

Sun Apr 11, 5:05pm

Sun Apr 11, 4:04pm

Sun Apr 11, 3:05pm

Sun Apr 11, 2:05pm

Sun Apr 11, 1:05pm

Sun Apr 11, 12:04pm

Sun Apr 11, 11:05am

Sun Apr 11, 10:05am

Sun Apr 11, 9:04am

Sun Apr 11, 8:04am

Sun Apr 11, 7:04am

Sun Apr 11, 6:04am

Sun Apr 11, 5:04am

Sun Apr 11, 4:04am

Sun Apr 11, 3:04am

Sun Apr 11, 2:04am

Sun Apr 11, 1:05am

Sun Apr 11, 12:04am

Sat Apr 10, 11:05pm

Sat Apr 10, 10:04pm

Sat Apr 10, 9:04pm

Sat Apr 10, 8:04pm

Sat Apr 10, 7:05pm

Sat Apr 10, 6:04pm

Sat Apr 10, 5:04pm

Sat Apr 10, 4:04pm

Sat Apr 10, 3:04pm

Sat Apr 10, 2:05pm

Sat Apr 10, 1:04pm

Sat Apr 10, 12:04pm

Sat Apr 10, 11:04am

Sat Apr 10, 10:04am

Sat Apr 10, 9:04am

Sat Apr 10, 8:04am

Sat Apr 10, 7:04am

Sat Apr 10, 6:04am

Sat Apr 10, 5:04am

Sat Apr 10, 4:04am

Sat Apr 10, 3:04am

Sat Apr 10, 2:04am

Sat Apr 10, 1:05am

Sat Apr 10, 12:04am

Fri Apr 9, 11:04pm

Fri Apr 9, 10:05pm

Fri Apr 9, 9:04pm

Fri Apr 9, 8:05pm

Fri Apr 9, 7:05pm

Fri Apr 9, 6:04pm

Fri Apr 9, 5:04pm

Fri Apr 9, 4:05pm

Fri Apr 9, 3:05pm

Fri Apr 9, 2:04pm

Fri Apr 9, 1:04pm

Fri Apr 9, 12:04pm

Fri Apr 9, 11:05am

Meta data:

ID: 48780554-e7f5-45c2-867e-1e8e551d00f5
Link: https://api.weather.gov/products/48780554-e7f5-45c2-867e-1e8e551d00f5